Weather History for KRDM - November, 2012

Change the Weather History Date:

Thursday, November 8, 2012

  Actual Average Record
Temperature  
Mean Temperature 35 °F 40 °F  
Max Temperature 46 °F 52 °F 71 °F (2007)
Min Temperature 23 °F 28 °F 13 °F (1975)
Degree Days  
Heating Degree Days 30 25  
Month to date heating degree days 143 191  
Since 1 July heating degree days 948 1136  
Cooling Degree Days 0 0  
Month to date cooling degree days 0 0  
Year to date cooling degree days 206 222  
Moisture  
Dew Point 27 °F    
Average Humidity 71    
Maximum Humidity 92    
Minimum Humidity 49    
Precipitation  
Precipitation 0.00 in 0.03 in 0.84 in (1963)
Month to date precipitation 0.04 0.24  
Year to date precipitation 9.09 7.02  
Sea Level Pressure  
Sea Level Pressure 29.76 in    
Wind  
Wind Speed 5 mph (NW)    
Max Wind Speed 12 mph    
Max Gust Speed 14 mph    
Visibility 10 miles    
Events      
T = Trace of Precipitation, MM = Missing Value Source: NWS Daily Summary

Daily Weather History Graph

Daily Weather History Graph

Search for Another Location

Airport or City:

Trip Planner

Search our weather history database for the weather conditions in past years. The results will help you decide how hot, cold, wet, or windy it might be!

Date:

Astronomy

Nov. 08, 2012 Rise Set
Actual Time 6:51 AM PST 4:44 PM PST
Civil Twilight 6:20 AM PST 5:15 PM PST
Nautical Twilight 5:46 AM PST 5:49 PM PST
Astronomical Twilight 5:12 AM PST 6:23 PM PST
Moon 12:39 AM PST (11/8) 1:39 PM PST (11/8)
Length of Visible Light 10h 54m
Length of Day
9h 52m
Waning Crescent, 32% of the Moon is Illuminated
Nov 8
Waning Crescent
Nov 13
New
Nov 20
First Quarter
Nov 28
Full
Dec 6
Last Quarter

Hourly Weather History & Observations

Time (PST) Temp. Windchill Dew Point Humidity Pressure Visibility Wind Dir Wind Speed Gust Speed Precip Events Conditions
12:56 AM 28.0 °F 24.2 °F 24.1 °F 85% 29.88 in 10.0 mi SSE 3.5 mph - N/A   Overcast
1:56 AM 28.9 °F 25.2 °F 25.0 °F 85% 29.86 in 10.0 mi SSE 3.5 mph - N/A   Overcast
2:56 AM 28.9 °F - 24.1 °F 82% 29.83 in 10.0 mi Calm Calm - N/A   Overcast
3:56 AM 30.0 °F - 25.0 °F 82% 29.82 in 10.0 mi Calm Calm - N/A   Overcast
4:56 AM 30.0 °F - 25.0 °F 82% 29.80 in 10.0 mi Calm Calm - N/A   Overcast
5:56 AM 30.0 °F 21.7 °F 25.0 °F 82% 29.78 in 10.0 mi SW 9.2 mph - N/A   Overcast
6:56 AM 27.0 °F - 24.1 °F 89% 29.79 in 10.0 mi Calm Calm - N/A   Scattered Clouds
7:56 AM 27.0 °F 23.0 °F 24.1 °F 89% 29.79 in 10.0 mi South 3.5 mph - N/A   Mostly Cloudy
8:56 AM 33.1 °F - 28.0 °F 82% 29.77 in 10.0 mi Calm Calm - N/A   Partly Cloudy
9:56 AM 37.0 °F 32.4 °F 28.9 °F 73% 29.76 in 10.0 mi NNW 5.8 mph - N/A   Overcast
10:56 AM 39.9 °F 37.8 °F 28.9 °F 65% 29.75 in 10.0 mi Variable 3.5 mph - N/A   Overcast
11:56 AM 43.0 °F 40.3 °F 28.0 °F 56% 29.72 in 10.0 mi NNE 4.6 mph - N/A   Partly Cloudy
12:12 PM 42.8 °F - 26.6 °F 53% 29.68 in 10.0 mi Calm Calm - N/A   Mostly Cloudy
12:56 PM 44.1 °F - 26.1 °F 49% 29.71 in 10.0 mi Calm Calm - N/A   Scattered Clouds
1:56 PM 44.1 °F 42.5 °F 26.1 °F 49% 29.70 in 10.0 mi Variable 3.5 mph - N/A   Mostly Cloudy
2:56 PM 43.0 °F 37.2 °F 27.0 °F 53% 29.70 in 10.0 mi North 10.4 mph - N/A   Partly Cloudy
3:56 PM 39.9 °F 33.9 °F 27.0 °F 60% 29.71 in 10.0 mi NNW 9.2 mph - N/A   Partly Cloudy
4:56 PM 37.0 °F 31.6 °F 27.0 °F 67% 29.71 in 10.0 mi NNW 6.9 mph - N/A   Partly Cloudy
5:56 PM 36.0 °F 30.3 °F 27.0 °F 70% 29.73 in 10.0 mi NNW 6.9 mph - N/A   Overcast
6:56 PM 35.1 °F 28.6 °F 28.0 °F 76% 29.75 in 10.0 mi NW 8.1 mph - N/A   Mostly Cloudy
7:56 PM 35.1 °F 27.4 °F 28.9 °F 78% 29.76 in 10.0 mi NNW 10.4 mph - N/A   Overcast
8:56 PM 34.0 °F 27.2 °F 28.9 °F 82% 29.76 in 10.0 mi NW 8.1 mph - N/A   Overcast
9:56 PM 34.0 °F 27.2 °F 28.9 °F 82% 29.77 in 10.0 mi NW 8.1 mph - N/A   Overcast
10:56 PM 34.0 °F 29.8 °F 28.0 °F 79% 29.77 in 10.0 mi West 4.6 mph - N/A   Overcast
11:56 PM 33.1 °F 27.7 °F 28.9 °F 85% 29.78 in 10.0 mi West 5.8 mph - N/A   Overcast